contact:dominique.lefevre@mio.osupytheas.fr, maurice.libes@osupytheas.fr, didier.mallarino@osupytheas.fr
Project:EMSO http://www.emso-fr.org/EMSO-France
Depth: 2436.0 m
Title:EMSO Ligure Ouest : Data MII capteur MICROCAT
DateTime_Computer,Latitude,Longitude,Temperature,Conductivity,Pressure,DateTime_Instrument
DateTime_Computer,Latitude,Longitude,degC,S m-1,dbar,DateTime_Instrument
2020-10-16T00:02:30Z,42.805,6.029,13.2982,4.59980,2470.053,2020-10-16T02:03:25Z
2020-10-16T00:05:34Z,42.805,6.029,13.2982,4.59981,2470.053,2020-10-16T02:06:28Z
2020-10-16T00:08:37Z,42.805,6.029,13.2982,4.59983,2470.04,2020-10-16T02:09:31Z
2020-10-16T00:11:40Z,42.805,6.029,13.2979,4.59981,2470.04,2020-10-16T02:12:34Z
2020-10-16T00:14:43Z,42.805,6.029,13.2983,4.59981,2470.063,2020-10-16T02:15:37Z
2020-10-16T00:17:46Z,42.805,6.029,13.2979,4.59982,2470.053,2020-10-16T02:18:40Z
2020-10-16T00:20:49Z,42.805,6.029,13.2986,4.59981,2470.03,2020-10-16T02:21:43Z
2020-10-16T00:23:52Z,42.805,6.029,13.2982,4.59982,2470.053,2020-10-16T02:24:46Z
2020-10-16T00:26:55Z,42.805,6.029,13.2979,4.59981,2470.053,2020-10-16T02:27:50Z
2020-10-16T00:29:59Z,42.805,6.029,13.2983,4.59981,2470.077,2020-10-16T02:30:53Z
2020-10-16T00:33:02Z,42.805,6.029,13.2979,4.59980,2470.026,2020-10-16T02:33:56Z
2020-10-16T00:36:05Z,42.805,6.029,13.2981,4.59980,2470.04,2020-10-16T02:36:59Z
2020-10-16T00:39:08Z,42.805,6.029,13.2978,4.59982,2470.04,2020-10-16T02:40:02Z
2020-10-16T00:42:11Z,42.805,6.029,13.2980,4.59980,2470.053,2020-10-16T02:43:05Z
2020-10-16T00:45:14Z,42.805,6.029,13.2983,4.59980,2470.007,2020-10-16T02:46:08Z
2020-10-16T00:48:17Z,42.805,6.029,13.2983,4.59981,2470.017,2020-10-16T02:49:11Z
2020-10-16T00:51:20Z,42.805,6.029,13.2985,4.59981,2470.04,2020-10-16T02:52:15Z
2020-10-16T00:54:24Z,42.805,6.029,13.2979,4.59980,2470.053,2020-10-16T02:55:18Z
2020-10-16T00:57:27Z,42.805,6.029,13.2980,4.59980,2470.017,2020-10-16T02:58:21Z
2020-10-16T01:00:30Z,42.805,6.029,13.2981,4.59982,2470.03,2020-10-16T03:01:24Z
2020-10-16T01:03:33Z,42.805,6.029,13.2977,4.59980,2470.03,2020-10-16T03:04:27Z
2020-10-16T01:06:36Z,42.805,6.029,13.2979,4.59981,2470.03,2020-10-16T03:07:30Z
2020-10-16T01:09:39Z,42.805,6.029,13.2976,4.59980,2470.017,2020-10-16T03:10:33Z
2020-10-16T01:12:42Z,42.805,6.029,13.2982,4.59981,2470.03,2020-10-16T03:13:36Z
2020-10-16T01:15:45Z,42.805,6.029,13.2981,4.59981,2470.053,2020-10-16T03:16:39Z
2020-10-16T01:18:49Z,42.805,6.029,13.2977,4.59979,2470.017,2020-10-16T03:19:43Z
2020-10-16T01:21:52Z,42.805,6.029,13.2981,4.59981,2470.04,2020-10-16T03:22:46Z
2020-10-16T01:24:55Z,42.805,6.029,13.2980,4.59980,2470.03,2020-10-16T03:25:49Z
2020-10-16T01:27:58Z,42.805,6.029,13.2983,4.59980,2470.017,2020-10-16T03:28:52Z
2020-10-16T01:31:01Z,42.805,6.029,13.2979,4.59980,2470.04,2020-10-16T03:31:55Z
2020-10-16T01:34:04Z,42.805,6.029,13.2982,4.59981,2470.017,2020-10-16T03:34:58Z
2020-10-16T01:37:07Z,42.805,6.029,13.2979,4.59980,2470.017,2020-10-16T03:38:01Z
2020-10-16T01:40:10Z,42.805,6.029,13.2976,4.59981,2470.053,2020-10-16T03:41:05Z
2020-10-16T01:43:14Z,42.805,6.029,13.2980,4.59980,2470.007,2020-10-16T03:44:08Z
2020-10-16T01:46:17Z,42.805,6.029,13.2983,4.59979,2470.017,2020-10-16T03:47:11Z
2020-10-16T01:49:20Z,42.805,6.029,13.2976,4.59979,2470.03,2020-10-16T03:50:14Z
2020-10-16T01:52:23Z,42.805,6.029,13.2976,4.59980,2470.017,2020-10-16T03:53:17Z
2020-10-16T01:55:26Z,42.805,6.029,13.2980,4.59980,2469.97,2020-10-16T03:56:20Z
2020-10-16T01:58:29Z,42.805,6.029,13.2978,4.59980,2470.053,2020-10-16T03:59:23Z
2020-10-16T02:01:32Z,42.805,6.029,13.2982,4.59979,2470.017,2020-10-16T04:02:26Z
2020-10-16T02:04:35Z,42.805,6.029,13.2975,4.59981,2470.017,2020-10-16T04:05:29Z
2020-10-16T02:07:38Z,42.805,6.029,13.2980,4.59980,2470.017,2020-10-16T04:08:33Z
2020-10-16T02:10:42Z,42.805,6.029,13.2977,4.59981,2470.017,2020-10-16T04:11:36Z
2020-10-16T02:13:45Z,42.805,6.029,13.2981,4.59980,2470.04,2020-10-16T04:14:39Z
2020-10-16T02:16:48Z,42.805,6.029,13.2982,4.59980,2470.026,2020-10-16T04:17:42Z
2020-10-16T02:19:51Z,42.805,6.029,13.2982,4.59981,2470.04,2020-10-16T04:20:45Z
2020-10-16T02:22:54Z,42.805,6.029,13.2980,4.59981,2470.053,2020-10-16T04:23:48Z
2020-10-16T02:25:57Z,42.805,6.029,13.2979,4.59980,2470.026,2020-10-16T04:26:51Z
2020-10-16T02:29:00Z,42.805,6.029,13.2980,4.59979,2470.017,2020-10-16T04:29:54Z
2020-10-16T02:32:03Z,42.805,6.029,13.2978,4.59979,2470.04,2020-10-16T04:32:58Z
2020-10-16T02:35:07Z,42.805,6.029,13.2982,4.59981,2470.04,2020-10-16T04:36:01Z
2020-10-16T02:38:10Z,42.805,6.029,13.2982,4.59982,2470.053,2020-10-16T04:39:04Z
2020-10-16T02:41:13Z,42.805,6.029,13.2979,4.59980,2470.04,2020-10-16T04:42:07Z
2020-10-16T02:44:16Z,42.805,6.029,13.2980,4.59980,2470.053,2020-10-16T04:45:10Z
2020-10-16T02:47:19Z,42.805,6.029,13.2981,4.59981,2470.04,2020-10-16T04:48:13Z
2020-10-16T02:50:22Z,42.805,6.029,13.2975,4.59981,2470.063,2020-10-16T04:51:16Z
2020-10-16T02:53:25Z,42.805,6.029,13.2977,4.59980,2470.053,2020-10-16T04:54:19Z
2020-10-16T02:56:28Z,42.805,6.029,13.2982,4.59981,2470.077,2020-10-16T04:57:23Z
2020-10-16T02:59:32Z,42.805,6.029,13.2979,4.59982,2470.077,2020-10-16T05:00:26Z
2020-10-16T03:02:35Z,42.805,6.029,13.2981,4.59980,2470.1,2020-10-16T05:03:29Z
2020-10-16T03:05:38Z,42.805,6.029,13.2983,4.59981,2470.1,2020-10-16T05:06:32Z
2020-10-16T03:08:41Z,42.805,6.029,13.2981,4.59980,2470.077,2020-10-16T05:09:35Z
2020-10-16T03:11:44Z,42.805,6.029,13.2983,4.59981,2470.11,2020-10-16T05:12:38Z
2020-10-16T03:14:47Z,42.805,6.029,13.2980,4.59980,2470.073,2020-10-16T05:15:41Z
2020-10-16T03:17:50Z,42.805,6.029,13.2977,4.59980,2470.087,2020-10-16T05:18:44Z
2020-10-16T03:20:53Z,42.805,6.029,13.2980,4.59981,2470.096,2020-10-16T05:21:48Z
2020-10-16T03:23:57Z,42.805,6.029,13.2979,4.59979,2470.11,2020-10-16T05:24:51Z
2020-10-16T03:27:00Z,42.805,6.029,13.2976,4.59981,2470.087,2020-10-16T05:27:54Z
2020-10-16T03:30:03Z,42.805,6.029,13.2979,4.59980,2470.11,2020-10-16T05:30:57Z
2020-10-16T03:33:06Z,42.805,6.029,13.2979,4.59981,2470.119,2020-10-16T05:34:00Z
2020-10-16T03:36:09Z,42.805,6.029,13.2982,4.59980,2470.156,2020-10-16T05:37:03Z
2020-10-16T03:39:12Z,42.805,6.029,13.2978,4.59981,2470.11,2020-10-16T05:40:06Z
2020-10-16T03:42:15Z,42.805,6.029,13.2979,4.59981,2470.1,2020-10-16T05:43:09Z
2020-10-16T03:45:18Z,42.805,6.029,13.2982,4.59980,2470.133,2020-10-16T05:46:13Z
2020-10-16T03:48:22Z,42.805,6.029,13.2980,4.59981,2470.124,2020-10-16T05:49:16Z
2020-10-16T03:51:25Z,42.805,6.029,13.2979,4.59981,2470.147,2020-10-16T05:52:19Z
2020-10-16T03:54:28Z,42.805,6.029,13.2982,4.59981,2470.171,2020-10-16T05:55:22Z
2020-10-16T03:57:31Z,42.805,6.029,13.2976,4.59981,2470.171,2020-10-16T05:58:25Z
2020-10-16T04:00:34Z,42.805,6.029,13.2983,4.59981,2470.133,2020-10-16T06:01:28Z
2020-10-16T04:03:37Z,42.805,6.029,13.2980,4.59981,2470.156,2020-10-16T06:04:31Z
2020-10-16T04:06:40Z,42.805,6.029,13.2981,4.59982,2470.133,2020-10-16T06:07:34Z
2020-10-16T04:09:43Z,42.805,6.029,13.2983,4.59982,2470.156,2020-10-16T06:10:38Z
2020-10-16T04:12:47Z,42.805,6.029,13.2976,4.59981,2470.147,2020-10-16T06:13:41Z
2020-10-16T04:15:50Z,42.805,6.029,13.2979,4.59981,2470.18,2020-10-16T06:16:44Z
2020-10-16T04:18:53Z,42.805,6.029,13.2979,4.59982,2470.133,2020-10-16T06:19:47Z
2020-10-16T04:21:56Z,42.805,6.029,13.2980,4.59981,2470.156,2020-10-16T06:22:50Z
2020-10-16T04:24:59Z,42.805,6.029,13.2982,4.59981,2470.156,2020-10-16T06:25:53Z
2020-10-16T04:28:02Z,42.805,6.029,13.2979,4.59981,2470.18,2020-10-16T06:28:56Z
2020-10-16T04:31:05Z,42.805,6.029,13.2979,4.59985,2470.203,2020-10-16T06:31:59Z
2020-10-16T04:34:08Z,42.805,6.029,13.2978,4.59981,2470.203,2020-10-16T06:35:02Z
2020-10-16T04:37:11Z,42.805,6.029,13.2979,4.59981,2470.18,2020-10-16T06:38:06Z
2020-10-16T04:40:15Z,42.805,6.029,13.2980,4.59981,2470.18,2020-10-16T06:41:09Z
2020-10-16T04:43:18Z,42.805,6.029,13.2981,4.59982,2470.147,2020-10-16T06:44:12Z
2020-10-16T04:46:21Z,42.805,6.029,13.2979,4.59982,2470.194,2020-10-16T06:47:15Z
2020-10-16T04:49:24Z,42.805,6.029,13.2983,4.59982,2470.203,2020-10-16T06:50:18Z
2020-10-16T04:52:27Z,42.805,6.029,13.2979,4.59981,2470.18,2020-10-16T06:53:21Z
2020-10-16T04:55:30Z,42.805,6.029,13.2982,4.59981,2470.217,2020-10-16T06:56:24Z
2020-10-16T04:58:33Z,42.805,6.029,13.2983,4.59981,2470.203,2020-10-16T06:59:27Z
2020-10-16T05:01:37Z,42.805,6.029,13.2979,4.59981,2470.203,2020-10-16T07:02:31Z
2020-10-16T05:04:40Z,42.805,6.029,13.2983,4.59982,2470.227,2020-10-16T07:05:34Z
2020-10-16T05:07:43Z,42.805,6.029,13.2983,4.59981,2470.203,2020-10-16T07:08:37Z
2020-10-16T05:10:46Z,42.805,6.029,13.2979,4.59982,2470.203,2020-10-16T07:11:40Z
2020-10-16T05:13:49Z,42.805,6.029,13.2984,4.59981,2470.213,2020-10-16T07:14:43Z
2020-10-16T05:16:52Z,42.805,6.029,13.2979,4.59982,2470.24,2020-10-16T07:17:46Z
2020-10-16T05:19:55Z,42.805,6.029,13.2982,4.59981,2470.24,2020-10-16T07:20:49Z
2020-10-16T05:22:58Z,42.805,6.029,13.2979,4.59984,2470.203,2020-10-16T07:23:52Z
2020-10-16T05:26:01Z,42.805,6.029,13.2984,4.59981,2470.227,2020-10-16T07:26:56Z
2020-10-16T05:29:05Z,42.805,6.029,13.2982,4.59982,2470.264,2020-10-16T07:29:59Z
2020-10-16T05:32:08Z,42.805,6.029,13.2981,4.59981,2470.227,2020-10-16T07:33:02Z
2020-10-16T05:35:11Z,42.805,6.029,13.2981,4.59982,2470.24,2020-10-16T07:36:05Z
2020-10-16T05:38:14Z,42.805,6.029,13.2983,4.59982,2470.227,2020-10-16T07:39:08Z
2020-10-16T05:41:17Z,42.805,6.029,13.2981,4.59983,2470.25,2020-10-16T07:42:11Z
2020-10-16T05:44:20Z,42.805,6.029,13.2980,4.59982,2470.227,2020-10-16T07:45:14Z
2020-10-16T05:47:23Z,42.805,6.029,13.2978,4.59982,2470.25,2020-10-16T07:48:17Z
2020-10-16T05:50:26Z,42.805,6.029,13.2978,4.59983,2470.287,2020-10-16T07:51:21Z
2020-10-16T05:53:30Z,42.805,6.029,13.2982,4.59983,2470.227,2020-10-16T07:54:24Z
2020-10-16T05:56:33Z,42.805,6.029,13.2983,4.59983,2470.25,2020-10-16T07:57:27Z
2020-10-16T05:59:36Z,42.805,6.029,13.2984,4.59984,2470.264,2020-10-16T08:00:30Z
2020-10-16T06:02:39Z,42.805,6.029,13.2982,4.59982,2470.25,2020-10-16T08:03:33Z
2020-10-16T06:05:42Z,42.805,6.029,13.2982,4.59985,2470.24,2020-10-16T08:06:36Z
2020-10-16T06:08:45Z,42.805,6.029,13.2980,4.59981,2470.25,2020-10-16T08:09:39Z
2020-10-16T06:11:48Z,42.805,6.029,13.2983,4.59983,2470.227,2020-10-16T08:12:42Z
2020-10-16T06:14:51Z,42.805,6.029,13.2981,4.59983,2470.217,2020-10-16T08:15:46Z
2020-10-16T06:17:55Z,42.805,6.029,13.2982,4.59983,2470.25,2020-10-16T08:18:49Z
2020-10-16T06:20:58Z,42.805,6.029,13.2980,4.59983,2470.273,2020-10-16T08:21:52Z
2020-10-16T06:24:01Z,42.805,6.029,13.2983,4.59983,2470.25,2020-10-16T08:24:55Z
2020-10-16T06:27:04Z,42.805,6.029,13.2980,4.59983,2470.273,2020-10-16T08:27:58Z
2020-10-16T06:30:07Z,42.805,6.029,13.2983,4.59983,2470.287,2020-10-16T08:31:01Z
2020-10-16T06:33:10Z,42.805,6.029,13.2979,4.59984,2470.273,2020-10-16T08:34:04Z
2020-10-16T06:36:13Z,42.805,6.029,13.2981,4.59984,2470.25,2020-10-16T08:37:07Z
2020-10-16T06:39:16Z,42.805,6.029,13.2984,4.59983,2470.287,2020-10-16T08:40:11Z
2020-10-16T06:42:20Z,42.805,6.029,13.2979,4.59985,2470.227,2020-10-16T08:43:14Z
2020-10-16T06:45:23Z,42.805,6.029,13.2977,4.59983,2470.273,2020-10-16T08:46:17Z
2020-10-16T06:48:26Z,42.805,6.029,13.2980,4.59983,2470.25,2020-10-16T08:49:20Z
2020-10-16T06:51:29Z,42.805,6.029,13.2979,4.59983,2470.227,2020-10-16T08:52:23Z
2020-10-16T06:54:32Z,42.805,6.029,13.2979,4.59984,2470.287,2020-10-16T08:55:26Z
2020-10-16T06:57:35Z,42.805,6.029,13.2984,4.59983,2470.24,2020-10-16T08:58:29Z
2020-10-16T07:00:38Z,42.805,6.029,13.2981,4.59983,2470.273,2020-10-16T09:01:32Z
2020-10-16T07:03:41Z,42.805,6.029,13.2986,4.59983,2470.264,2020-10-16T09:04:36Z
2020-10-16T07:06:44Z,42.805,6.029,13.2982,4.59984,2470.264,2020-10-16T09:07:39Z
2020-10-16T07:09:48Z,42.805,6.029,13.2982,4.59985,2470.25,2020-10-16T09:10:42Z
2020-10-16T07:12:51Z,42.805,6.029,13.2983,4.59985,2470.25,2020-10-16T09:13:45Z
2020-10-16T07:15:54Z,42.805,6.029,13.2979,4.59984,2470.25,2020-10-16T09:16:48Z
2020-10-16T07:18:57Z,42.805,6.029,13.2981,4.59983,2470.264,2020-10-16T09:19:51Z
2020-10-16T07:22:00Z,42.805,6.029,13.2989,4.59985,2470.31,2020-10-16T09:22:54Z
2020-10-16T07:25:03Z,42.805,6.029,13.2983,4.59986,2470.273,2020-10-16T09:25:57Z
2020-10-16T07:28:06Z,42.805,6.029,13.2982,4.59984,2470.287,2020-10-16T09:29:01Z
2020-10-16T07:31:09Z,42.805,6.029,13.2983,4.59986,2470.25,2020-10-16T09:32:04Z
2020-10-16T07:34:13Z,42.805,6.029,13.2984,4.59986,2470.264,2020-10-16T09:35:07Z
2020-10-16T07:37:16Z,42.805,6.029,13.2984,4.59986,2470.25,2020-10-16T09:38:10Z
2020-10-16T07:40:19Z,42.805,6.029,13.2986,4.59987,2470.25,2020-10-16T09:41:13Z
2020-10-16T07:43:22Z,42.805,6.029,13.2983,4.59984,2470.227,2020-10-16T09:44:16Z
2020-10-16T07:46:25Z,42.805,6.029,13.2984,4.59986,2470.24,2020-10-16T09:47:19Z
2020-10-16T07:49:28Z,42.805,6.029,13.2982,4.59984,2470.264,2020-10-16T09:50:22Z
2020-10-16T07:52:31Z,42.805,6.029,13.2983,4.59984,2470.273,2020-10-16T09:53:25Z
2020-10-16T07:55:34Z,42.805,6.029,13.2982,4.59984,2470.273,2020-10-16T09:56:29Z
2020-10-16T07:58:38Z,42.805,6.029,13.2986,4.59985,2470.25,2020-10-16T09:59:32Z
2020-10-16T08:01:41Z,42.805,6.029,13.2986,4.59985,2470.227,2020-10-16T10:02:35Z
2020-10-16T08:04:44Z,42.805,6.029,13.2981,4.59986,2470.227,2020-10-16T10:05:38Z
2020-10-16T08:07:47Z,42.805,6.029,13.2979,4.59985,2470.25,2020-10-16T10:08:41Z
2020-10-16T08:10:50Z,42.805,6.029,13.2985,4.59985,2470.227,2020-10-16T10:11:44Z
2020-10-16T08:13:53Z,42.805,6.029,13.2986,4.59986,2470.24,2020-10-16T10:14:47Z
2020-10-16T08:16:56Z,42.805,6.029,13.2985,4.59986,2470.273,2020-10-16T10:17:50Z
2020-10-16T08:20:00Z,42.805,6.029,13.2983,4.59986,2470.227,2020-10-16T10:20:54Z
2020-10-16T08:23:03Z,42.805,6.029,13.2986,4.59985,2470.25,2020-10-16T10:23:57Z
2020-10-16T08:26:06Z,42.805,6.029,13.2985,4.59986,2470.24,2020-10-16T10:27:00Z
2020-10-16T08:29:09Z,42.805,6.029,13.2982,4.59986,2470.24,2020-10-16T10:30:03Z
2020-10-16T08:32:12Z,42.805,6.029,13.2984,4.59986,2470.227,2020-10-16T10:33:06Z
2020-10-16T08:35:15Z,42.805,6.029,13.2984,4.59987,2470.227,2020-10-16T10:36:09Z
2020-10-16T08:38:18Z,42.805,6.029,13.2983,4.59985,2470.227,2020-10-16T10:39:12Z
2020-10-16T08:41:21Z,42.805,6.029,13.2982,4.59985,2470.203,2020-10-16T10:42:16Z
2020-10-16T08:44:25Z,42.805,6.029,13.2983,4.59986,2470.18,2020-10-16T10:45:19Z
2020-10-16T08:47:28Z,42.805,6.029,13.2984,4.59987,2470.18,2020-10-16T10:48:22Z
2020-10-16T08:50:31Z,42.805,6.029,13.2983,4.59986,2470.217,2020-10-16T10:51:25Z
2020-10-16T08:53:34Z,42.805,6.029,13.2982,4.59987,2470.227,2020-10-16T10:54:28Z
2020-10-16T08:56:37Z,42.805,6.029,13.2983,4.59985,2470.227,2020-10-16T10:57:31Z
2020-10-16T08:59:40Z,42.805,6.029,13.2985,4.59985,2470.18,2020-10-16T11:00:34Z
2020-10-16T09:02:43Z,42.805,6.029,13.2983,4.59986,2470.203,2020-10-16T11:03:37Z
2020-10-16T09:05:46Z,42.805,6.029,13.2986,4.59987,2470.217,2020-10-16T11:06:41Z
2020-10-16T09:08:49Z,42.805,6.029,13.2986,4.59986,2470.18,2020-10-16T11:09:44Z
2020-10-16T09:11:53Z,42.805,6.029,13.2984,4.59986,2470.203,2020-10-16T11:12:47Z
2020-10-16T09:14:56Z,42.805,6.029,13.2985,4.59987,2470.18,2020-10-16T11:15:50Z
2020-10-16T09:17:59Z,42.805,6.029,13.2990,4.59986,2470.203,2020-10-16T11:18:53Z
2020-10-16T09:21:02Z,42.805,6.029,13.2986,4.59986,2470.203,2020-10-16T11:21:56Z
2020-10-16T09:24:05Z,42.805,6.029,13.2986,4.59986,2470.18,2020-10-16T11:24:59Z
2020-10-16T09:27:08Z,42.805,6.029,13.2985,4.59988,2470.18,2020-10-16T11:28:02Z
2020-10-16T09:30:11Z,42.805,6.029,13.2984,4.59986,2470.203,2020-10-16T11:31:06Z
2020-10-16T09:33:15Z,42.805,6.029,13.2988,4.59987,2470.217,2020-10-16T11:34:09Z
2020-10-16T09:36:18Z,42.805,6.029,13.2986,4.59987,2470.18,2020-10-16T11:37:12Z
2020-10-16T09:39:21Z,42.805,6.029,13.2986,4.59987,2470.194,2020-10-16T11:40:15Z
2020-10-16T09:42:24Z,42.805,6.029,13.2985,4.59987,2470.156,2020-10-16T11:43:18Z
2020-10-16T09:45:27Z,42.805,6.029,13.2985,4.59988,2470.203,2020-10-16T11:46:21Z
2020-10-16T09:48:30Z,42.805,6.029,13.2985,4.59987,2470.18,2020-10-16T11:49:24Z
2020-10-16T09:51:33Z,42.805,6.029,13.2986,4.59988,2470.156,2020-10-16T11:52:27Z
2020-10-16T09:54:36Z,42.805,6.029,13.2986,4.59988,2470.156,2020-10-16T11:55:31Z
2020-10-16T09:57:40Z,42.805,6.029,13.2983,4.59986,2470.171,2020-10-16T11:58:34Z
2020-10-16T10:00:43Z,42.805,6.029,13.2984,4.59990,2470.156,2020-10-16T12:01:37Z
2020-10-16T10:03:46Z,42.805,6.029,13.2982,4.59987,2470.156,2020-10-16T12:04:40Z
2020-10-16T10:06:49Z,42.805,6.029,13.2987,4.59987,2470.171,2020-10-16T12:07:43Z
2020-10-16T10:09:52Z,42.805,6.029,13.2982,4.59987,2470.171,2020-10-16T12:10:46Z
2020-10-16T10:12:55Z,42.805,6.029,13.2986,4.59987,2470.156,2020-10-16T12:13:49Z
2020-10-16T10:15:58Z,42.805,6.029,13.2982,4.59987,2470.171,2020-10-16T12:16:52Z
2020-10-16T10:19:02Z,42.805,6.029,13.2991,4.59986,2470.171,2020-10-16T12:19:56Z
2020-10-16T10:22:05Z,42.805,6.029,13.2985,4.59987,2470.171,2020-10-16T12:22:59Z
2020-10-16T10:25:08Z,42.805,6.029,13.2986,4.59986,2470.133,2020-10-16T12:26:02Z
2020-10-16T10:28:11Z,42.805,6.029,13.2984,4.59986,2470.156,2020-10-16T12:29:05Z
2020-10-16T10:31:14Z,42.805,6.029,13.2986,4.59986,2470.11,2020-10-16T12:32:08Z
2020-10-16T10:34:17Z,42.805,6.029,13.2986,4.59987,2470.171,2020-10-16T12:35:11Z
2020-10-16T10:37:20Z,42.805,6.029,13.2986,4.59986,2470.156,2020-10-16T12:38:14Z
2020-10-16T10:40:23Z,42.805,6.029,13.2987,4.59987,2470.147,2020-10-16T12:41:17Z
2020-10-16T10:43:26Z,42.805,6.029,13.2985,4.59986,2470.156,2020-10-16T12:44:21Z
2020-10-16T10:46:30Z,42.805,6.029,13.2986,4.59988,2470.133,2020-10-16T12:47:24Z
2020-10-16T10:49:33Z,42.805,6.029,13.2991,4.59986,2470.133,2020-10-16T12:50:27Z
2020-10-16T10:52:36Z,42.805,6.029,13.2982,4.59986,2470.147,2020-10-16T12:53:30Z
2020-10-16T10:55:39Z,42.805,6.029,13.2988,4.59986,2470.147,2020-10-16T12:56:33Z
2020-10-16T10:58:42Z,42.805,6.029,13.2985,4.59986,2470.133,2020-10-16T12:59:36Z
2020-10-16T11:01:45Z,42.805,6.029,13.2983,4.59986,2470.087,2020-10-16T13:02:39Z
2020-10-16T11:04:48Z,42.805,6.029,13.2983,4.59986,2470.133,2020-10-16T13:05:43Z
2020-10-16T11:07:52Z,42.805,6.029,13.2986,4.59986,2470.124,2020-10-16T13:08:46Z
2020-10-16T11:10:55Z,42.805,6.029,13.2986,4.59988,2470.124,2020-10-16T13:11:49Z
2020-10-16T11:13:58Z,42.805,6.029,13.2986,4.59986,2470.133,2020-10-16T13:14:52Z
2020-10-16T11:17:01Z,42.805,6.029,13.2983,4.59986,2470.11,2020-10-16T13:17:55Z
2020-10-16T11:20:04Z,42.805,6.029,13.2983,4.59990,2470.11,2020-10-16T13:20:58Z
2020-10-16T11:23:07Z,42.805,6.029,13.2983,4.59987,2470.1,2020-10-16T13:24:01Z
2020-10-16T11:26:10Z,42.805,6.029,13.2984,4.59985,2470.1,2020-10-16T13:27:04Z
2020-10-16T11:29:13Z,42.805,6.029,13.2985,4.59984,2470.087,2020-10-16T13:30:08Z
2020-10-16T11:32:17Z,42.805,6.029,13.2986,4.59985,2470.124,2020-10-16T13:33:11Z
2020-10-16T11:35:20Z,42.805,6.029,13.2988,4.59987,2470.11,2020-10-16T13:36:14Z
2020-10-16T11:38:23Z,42.805,6.029,13.2988,4.59986,2470.063,2020-10-16T13:39:17Z
2020-10-16T11:41:26Z,42.805,6.029,13.2984,4.59985,2470.073,2020-10-16T13:42:20Z
2020-10-16T11:44:29Z,42.805,6.029,13.2982,4.59986,2470.087,2020-10-16T13:45:23Z
2020-10-16T11:47:32Z,42.805,6.029,13.2985,4.59987,2470.077,2020-10-16T13:48:26Z
2020-10-16T11:50:35Z,42.805,6.029,13.2982,4.59985,2470.11,2020-10-16T13:51:29Z
2020-10-16T11:53:38Z,42.805,6.029,13.2986,4.59985,2470.087,2020-10-16T13:54:33Z
2020-10-16T11:56:42Z,42.805,6.029,13.2986,4.59986,2470.1,2020-10-16T13:57:36Z
2020-10-16T11:59:45Z,42.805,6.029,13.2985,4.59985,2470.1,2020-10-16T14:00:39Z
2020-10-16T12:02:48Z,42.805,6.029,13.2986,4.59985,2470.087,2020-10-16T14:03:42Z
2020-10-16T12:05:51Z,42.805,6.029,13.2981,4.59984,2470.1,2020-10-16T14:06:45Z
2020-10-16T12:08:54Z,42.805,6.029,13.2982,4.59984,2470.1,2020-10-16T14:09:48Z
2020-10-16T12:11:57Z,42.805,6.029,13.2982,4.59984,2470.087,2020-10-16T14:12:51Z
2020-10-16T12:15:00Z,42.805,6.029,13.2985,4.59986,2470.04,2020-10-16T14:15:54Z
2020-10-16T12:18:03Z,42.805,6.029,13.2983,4.59985,2470.063,2020-10-16T14:18:58Z
2020-10-16T12:21:07Z,42.805,6.029,13.2985,4.59983,2470.087,2020-10-16T14:22:01Z
2020-10-16T12:24:10Z,42.805,6.029,13.2981,4.59983,2470.063,2020-10-16T14:25:04Z
2020-10-16T12:27:13Z,42.805,6.029,13.2984,4.59984,2470.087,2020-10-16T14:28:07Z
2020-10-16T12:30:16Z,42.805,6.029,13.2984,4.59984,2470.077,2020-10-16T14:31:10Z
2020-10-16T12:33:19Z,42.805,6.029,13.2989,4.59986,2470.1,2020-10-16T14:34:13Z
2020-10-16T12:36:22Z,42.805,6.029,13.2985,4.59984,2470.1,2020-10-16T14:37:16Z
2020-10-16T12:39:25Z,42.805,6.029,13.2983,4.59985,2470.077,2020-10-16T14:40:20Z
2020-10-16T12:42:29Z,42.805,6.029,13.2986,4.59985,2470.04,2020-10-16T14:43:23Z
2020-10-16T12:45:32Z,42.805,6.029,13.2984,4.59984,2470.11,2020-10-16T14:46:26Z
2020-10-16T12:48:35Z,42.805,6.029,13.2986,4.59984,2470.04,2020-10-16T14:49:29Z
2020-10-16T12:51:38Z,42.805,6.029,13.2983,4.59986,2470.04,2020-10-16T14:52:32Z
2020-10-16T12:54:41Z,42.805,6.029,13.2989,4.59984,2470.1,2020-10-16T14:55:35Z
2020-10-16T12:57:44Z,42.805,6.029,13.2988,4.59985,2470.04,2020-10-16T14:58:38Z
2020-10-16T13:00:47Z,42.805,6.029,13.2985,4.59986,2470.053,2020-10-16T15:01:41Z
2020-10-16T13:03:50Z,42.805,6.029,13.2985,4.59984,2470.063,2020-10-16T15:04:45Z
2020-10-16T13:06:53Z,42.805,6.029,13.2988,4.59984,2470.053,2020-10-16T15:07:48Z
2020-10-16T13:09:57Z,42.805,6.029,13.2983,4.59986,2470.04,2020-10-16T15:10:51Z
2020-10-16T13:13:00Z,42.805,6.029,13.2987,4.59985,2470.063,2020-10-16T15:13:54Z
2020-10-16T13:16:03Z,42.805,6.029,13.2983,4.59983,2470.077,2020-10-16T15:16:57Z
2020-10-16T13:19:06Z,42.805,6.029,13.2983,4.59984,2470.087,2020-10-16T15:20:00Z
2020-10-16T13:22:09Z,42.805,6.029,13.2982,4.59983,2470.063,2020-10-16T15:23:03Z
2020-10-16T13:25:12Z,42.805,6.029,13.2989,4.59984,2470.1,2020-10-16T15:26:06Z
2020-10-16T13:28:15Z,42.805,6.029,13.2979,4.59983,2470.053,2020-10-16T15:29:09Z
2020-10-16T13:31:19Z,42.805,6.029,13.2985,4.59986,2470.049,2020-10-16T15:32:13Z
2020-10-16T13:34:22Z,42.805,6.029,13.2985,4.59984,2470.04,2020-10-16T15:35:16Z
2020-10-16T13:37:25Z,42.805,6.029,13.2985,4.59985,2470.04,2020-10-16T15:38:19Z
2020-10-16T13:40:28Z,42.805,6.029,13.2988,4.59983,2470.063,2020-10-16T15:41:22Z
2020-10-16T13:43:31Z,42.805,6.029,13.2981,4.59984,2470.063,2020-10-16T15:44:25Z
2020-10-16T13:46:34Z,42.805,6.029,13.2984,4.59985,2470.077,2020-10-16T15:47:28Z
2020-10-16T13:49:37Z,42.805,6.029,13.2985,4.59984,2470.087,2020-10-16T15:50:31Z
2020-10-16T13:52:40Z,42.805,6.029,13.2986,4.59984,2470.1,2020-10-16T15:53:35Z
2020-10-16T13:55:44Z,42.805,6.029,13.2986,4.59985,2470.077,2020-10-16T15:56:38Z
2020-10-16T13:58:47Z,42.805,6.029,13.2984,4.59985,2470.077,2020-10-16T15:59:41Z
2020-10-16T14:01:50Z,42.805,6.029,13.2983,4.59985,2470.077,2020-10-16T16:02:44Z
2020-10-16T14:04:53Z,42.805,6.029,13.2985,4.59985,2470.049,2020-10-16T16:05:47Z
2020-10-16T14:07:56Z,42.805,6.029,13.2987,4.59987,2470.063,2020-10-16T16:08:50Z
2020-10-16T14:10:59Z,42.805,6.029,13.2990,4.59986,2470.1,2020-10-16T16:11:53Z
2020-10-16T14:14:02Z,42.805,6.029,13.2986,4.59985,2470.11,2020-10-16T16:14:56Z
2020-10-16T14:17:05Z,42.805,6.029,13.2982,4.59986,2470.077,2020-10-16T16:18:00Z
2020-10-16T14:20:09Z,42.805,6.029,13.2983,4.59985,2470.11,2020-10-16T16:21:03Z
2020-10-16T14:23:12Z,42.805,6.029,13.2983,4.59986,2470.087,2020-10-16T16:24:06Z
2020-10-16T14:26:15Z,42.805,6.029,13.2982,4.59986,2470.124,2020-10-16T16:27:09Z
2020-10-16T14:29:18Z,42.805,6.029,13.2986,4.59986,2470.124,2020-10-16T16:30:12Z
2020-10-16T14:32:21Z,42.805,6.029,13.2983,4.59986,2470.11,2020-10-16T16:33:15Z
2020-10-16T14:35:24Z,42.805,6.029,13.2983,4.59986,2470.087,2020-10-16T16:36:18Z
2020-10-16T14:38:27Z,42.805,6.029,13.2988,4.59985,2470.1,2020-10-16T16:39:21Z
2020-10-16T14:41:30Z,42.805,6.029,13.2983,4.59985,2470.133,2020-10-16T16:42:25Z
2020-10-16T14:44:34Z,42.805,6.029,13.2986,4.59985,2470.138,2020-10-16T16:45:28Z
2020-10-16T14:47:37Z,42.805,6.029,13.2983,4.59986,2470.133,2020-10-16T16:48:31Z
2020-10-16T14:50:40Z,42.805,6.029,13.2986,4.59986,2470.124,2020-10-16T16:51:34Z
2020-10-16T14:53:43Z,42.805,6.029,13.2983,4.59986,2470.096,2020-10-16T16:54:37Z
2020-10-16T14:56:46Z,42.805,6.029,13.2983,4.59986,2470.087,2020-10-16T16:57:40Z
2020-10-16T14:59:49Z,42.805,6.029,13.2987,4.59986,2470.133,2020-10-16T17:00:43Z
2020-10-16T15:02:52Z,42.805,6.029,13.2987,4.59988,2470.11,2020-10-16T17:03:46Z